Tracking 31027 objects as of 19-Jul-2025
HD Live streaming from Space Station
objects crossing your sky now

STARLINK-11313

Track STARLINK-11313 now!
10-day predictions
STARLINK-11313 is classified as:


NORAD ID: 61255
Int'l Code: 2024-175N
Perigee: 366.0 km
Apogee: 367.6 km
Inclination: 53.2 °
Period: 91.7 minutes
Semi major axis: 6737 km
RCS: Unknown
Launch date: September 25, 2024
Source: United States (US)
Launch site: AIR FORCE WESTERN TEST RANGE (AFWTR)
Your satellite tracking list
NOAA 16 DEB
Track 1 satellite(s)




NASA's NSSDC Master Catalog

Two Line Element Set (TLE):
1 61255U 24175N   25199.82116458 -.00002940  00000-0 -19406-4 0  9990
2 61255  53.1592 129.2365 0001186  70.6801 289.4345 15.69718314 46631
Source of the keplerian elements: AFSPC